Weather History for Bradford, PA

Change the Weather History Date:

Thursday, September 26, 2013

  Actual Average Record
Temperature  
Mean Temperature 58 °F 53 °F  
Max Temperature 68 °F 64 °F 79 °F (1998)
Min Temperature 47 °F 42 °F 27 °F (1957)
Degree Days  
Heating Degree Days 7 8  
Month to date heating degree days 200 112  
Since 1 July heating degree days 336 265  
Cooling Degree Days 0 0  
Month to date cooling degree days 30 13  
Year to date cooling degree days 325 190  
Growing Degree Days 4 (Base 50)    
Moisture  
Dew Point 40 °F    
Average Humidity 64    
Maximum Humidity 86    
Minimum Humidity 42    
Precipitation  
Precipitation 0.00 in 0.14 in 1.81 in (2005)
Month to date precipitation 2.53 3.41  
Year to date precipitation 23.94 33.36  
Sea Level Pressure  
Sea Level Pressure 30.06 in    
Wind  
Wind Speed 3 mph (NE)    
Max Wind Speed 9 mph    
Max Gust Speed -    
Visibility 6 miles    
Events      
T = Trace of Precipitation, MM = Missing Value Source: NWS Daily Summary

Daily Weather History Graph

Daily Weather History Graph

Search for Another Location

Airport:

Trip Planner

Search our weather history database for the weather conditions in past years. The results will help you decide how hot, cold, wet, or windy it might be!

Date:

Astronomy

Sep. 26, 2013 Rise Set
Actual Time 7:06 AM EDT 7:04 PM EDT
Civil Twilight 6:38 AM EDT 7:32 PM EDT
Nautical Twilight 6:06 AM EDT 8:04 PM EDT
Astronomical Twilight 5:33 AM EDT 8:37 PM EDT
Moon 11:56 PM EDT (9/26) 2:01 PM EDT (9/26)
Length of Visible Light 12h 53m
Length of Day
11h 58m
Waning Gibbous, 55% of the Moon is Illuminated
Sep 26
Waning Gibbous
Sep 26
Last Quarter
Oct 4
New
Oct 11
First Quarter
Oct 18
Full

Hourly Weather History & Observations

Time (EDT) Temp. Dew Point Humidity Pressure Visibility Wind Dir Wind Speed Gust Speed Precip Events Conditions
12:53 AM 48.0 °F 39.9 °F 74% 29.99 in 10.0 mi Calm Calm - N/A   Clear
1:53 AM 46.0 °F 37.9 °F 73% 30.00 in 10.0 mi Calm Calm - N/A   Clear
2:53 AM 43.0 °F 36.0 °F 76% 30.00 in 10.0 mi Calm Calm - N/A   Clear
3:51 AM 42.8 °F 37.4 °F 81% 30.01 in 1.8 mi Calm Calm - N/A   Haze
3:53 AM 42.1 °F 36.0 °F 79% 29.99 in 1.8 mi Calm Calm - N/A   Haze
3:55 AM 41.0 °F 35.1 °F 79% 30.01 in 1.8 mi Calm Calm - N/A   Haze
4:02 AM 41.0 °F 35.1 °F 79% 30.01 in 0.8 mi Calm Calm - N/A   Haze
4:41 AM 41.0 °F 35.1 °F 79% 30.02 in 0.2 mi Calm Calm - N/A   Haze
4:53 AM 41.0 °F 35.1 °F 79% 30.01 in 0.2 mi Calm Calm - N/A   Haze
5:18 AM 41.0 °F 35.1 °F 79% 30.02 in 0.8 mi Calm Calm - N/A   Haze
5:35 AM 39.9 °F 34.0 °F 79% 30.02 in 1.0 mi Calm Calm - N/A   Haze
5:44 AM 39.0 °F 33.1 °F 79% 30.03 in 0.5 mi Calm Calm - N/A   Haze
5:53 AM 39.9 °F 33.1 °F 77% 30.02 in 0.2 mi Calm Calm - N/A   Haze
6:14 AM 39.0 °F 33.1 °F 79% 30.03 in 0.8 mi Calm Calm - N/A   Haze
6:21 AM 39.0 °F 33.1 °F 79% 30.03 in 2.0 mi Calm Calm - N/A   Haze
6:35 AM 39.0 °F 32.0 °F 76% 30.04 in 3.0 mi Calm Calm - N/A   Haze
6:53 AM 39.9 °F 33.1 °F 77% 30.04 in 3.0 mi Calm Calm - N/A   Haze
7:53 AM 39.0 °F 33.1 °F 79% 30.06 in 10.0 mi Calm Calm - N/A   Clear
8:53 AM 48.0 °F 42.1 °F 80% 30.07 in 10.0 mi Calm Calm - N/A   Clear
9:53 AM 57.9 °F 45.0 °F 62% 30.08 in 10.0 mi East 4.6 mph - N/A   Clear
10:53 AM 64.0 °F 45.0 °F 50% 30.07 in 10.0 mi NNE 4.6 mph - N/A   Clear
11:53 AM 68.0 °F 45.0 °F 43% 30.08 in 10.0 mi NNE 8.1 mph - N/A   Clear
12:53 PM 64.0 °F 44.1 °F 48% 30.08 in 10.0 mi ESE 6.9 mph - N/A   Clear
2:53 PM - - N/A% - - North - - N/A   Unknown
3:53 PM 68.0 °F 46.9 °F 47% 30.07 in 10.0 mi Variable 6.9 mph - N/A   Clear
4:53 PM 64.9 °F 48.0 °F 54% 30.08 in 10.0 mi NE 9.2 mph - N/A   Scattered Clouds
5:53 PM 63.0 °F 48.0 °F 58% 30.10 in 10.0 mi ENE 5.8 mph - N/A   Mostly Cloudy
6:53 PM 60.1 °F 48.0 °F 64% 30.11 in 10.0 mi ENE 4.6 mph - N/A   Partly Cloudy
7:53 PM 57.0 °F 48.0 °F 72% 30.12 in 10.0 mi NE 4.6 mph - N/A   Clear
8:53 PM 55.0 °F 48.9 °F 80% 30.14 in 10.0 mi NNE 4.6 mph - N/A   Clear
9:53 PM 54.0 °F 48.0 °F 80% 30.15 in 10.0 mi ENE 3.5 mph - N/A   Clear
10:53 PM 53.1 °F 48.0 °F 83% 30.15 in 10.0 mi NE 3.5 mph - N/A   Clear
11:53 PM 50.0 °F 46.9 °F 89% 30.16 in 10.0 mi Calm Calm - N/A   Clear